DIRECTV 12

Last updated on Wed Nov 05 2025 00:02:46 GMT+0000 (Coordinated Universal Time)

1 36131U 09075A 25308.58683391 -.00000091 00000+0 00000+0 0 9995 2 36131 0.0118 14.5399 0000871 235.8636 262.2487 1.00273003 44304
UTC large
Height (km)
Speed (km/s)
/
Latitude / Longitude
Inclination (degrees)
Orbital Period (minutes)
Azimuth
Elevation
Range (km)
Doppler Factor

Next 0 passes for location: London (51.5072 / 0.1276)

Sorry there are no passes over London.